| time (UTC) | temp C | wind direction | speed KPH | gust KPH | rain 1hr cm | rain 24hr cm | rain mn cm | humidity % | barometer mb |
| 20260510175841 | 26 | 8 | 1.6 | 1.6 | 0.00 | 0.00 | 0.00 | 60 | 4253.0 |
| 20260510174839 | 26 | 8 | 3.2 | 3.2 | 0.00 | 0.00 | 0.00 | 63 | 4253.3 |
| 20260510173838 | 26 | 8 | 4.8 | 4.8 | 0.00 | 0.00 | 0.00 | 66 | 4253.3 |
| 20260510172836 | 26 | 20 | 3.2 | 3.2 | 0.00 | 0.00 | 0.00 | 73 | 4253.6 |
| 20260510171835 | 26 | 8 | 3.2 | 4.8 | 0.00 | 0.00 | 0.00 | 74 | 4253.6 |
| 20260510170829 | 25 | 7 | 3.2 | 3.2 | 0.00 | 0.00 | 0.00 | 75 | 4253.7 |
| 20260510165826 | 25 | 3 | 6.4 | 8.0 | 0.00 | 0.00 | 0.00 | 79 | 4253.8 |
| 20260510164826 | 24 | 19 | 4.8 | 4.8 | 0.00 | 0.00 | 0.00 | 84 | 4253.6 |
| 20260510163823 | 24 | 18 | 3.2 | 3.2 | 0.00 | 0.00 | 0.00 | 84 | 4253.7 |
| 20260510162819 | 23 | 21 | 1.6 | 3.2 | 0.00 | 0.00 | 0.00 | 86 | 4253.7 |
| 20260510161818 | 23 | 19 | 3.2 | 3.2 | 0.00 | 0.00 | 0.00 | 86 | 4253.8 |
| 20260510160818 | 23 | 11 | 4.8 | 4.8 | 0.00 | 0.00 | 0.00 | 87 | 4253.6 |
| 20260510155814 | 22 | 8 | 4.8 | 4.8 | 0.00 | 0.00 | 0.00 | 90 | 4253.7 |
| 20260510154813 | 22 | 10 | 1.6 | 1.6 | 0.00 | 0.00 | 0.00 | 89 | 4253.9 |
| 20260510153809 | 22 | 12 | 1.6 | 3.2 | 0.00 | 0.00 | 0.00 | 88 | 4253.6 |
| 20260510152808 | 22 | 86 | 3.2 | 3.2 | 0.00 | 0.00 | 0.00 | 89 | 4253.6 |
| 20260510151808 | 21 | 90 | 4.8 | 4.8 | 0.00 | 0.00 | 0.00 | 91 | 4253.6 |
| 20260510150807 | 21 | 94 | 3.2 | 3.2 | 0.00 | 0.00 | 0.00 | 91 | 4253.7 |
| 20260510145805 | 21 | 87 | 3.2 | 3.2 | 0.00 | 0.00 | 0.00 | 93 | 4253.4 |
| 20260510144804 | 20 | 105 | 3.2 | 3.2 | 0.00 | 0.00 | 0.00 | 93 | 4253.4 |
| 20260510143801 | 21 | 137 | 3.2 | 4.8 | 0.00 | 0.00 | 0.00 | 93 | 4253.4 |
| 20260510142759 | 20 | 120 | 3.2 | 3.2 | 0.00 | 0.00 | 0.00 | 94 | 4253.6 |
| 20260510141754 | 20 | 110 | 1.6 | 3.2 | 0.00 | 0.00 | 0.00 | 94 | 4253.6 |
| 20260510140754 | 19 | 108 | 1.6 | 1.6 | 0.00 | 0.00 | 0.00 | 95 | 4253.3 |
| 20260510135749 | 19 | 240 | 3.2 | 3.2 | 0.00 | 0.00 | 0.00 | 96 | 4253.4 |
| 20260510134749 | 18 | 225 | 3.2 | 3.2 | 0.00 | 0.00 | 0.00 | 95 | 4253.5 |
| 20260510133748 | 18 | 230 | 1.6 | 3.2 | 0.00 | 0.00 | 0.00 | 95 | 4253.4 |
| 20260510132745 | 18 | 168 | 1.6 | 3.2 | 0.00 | 0.00 | 0.00 | 96 | 4253.4 |
| 20260510131746 | 17 | 171 | 1.6 | 3.2 | 0.00 | 0.00 | 0.00 | 97 | 4253.6 |
| 20260510130740 | 17 | 176 | 1.6 | 3.2 | 0.00 | 0.00 | 0.00 | 98 | 4253.4 |
| 20260510125739 | 17 | 163 | 3.2 | 4.8 | 0.00 | 0.00 | 0.00 | 98 | 4253.1 |
| 20260510124738 | 17 | 230 | 1.6 | 3.2 | 0.00 | 0.00 | 0.00 | 97 | 4253.2 |
| 20260510123737 | 17 | 188 | 0.0 | 1.6 | 0.00 | 0.00 | 0.00 | 99 | 4253.1 |
| 20260510122735 | 17 | 215 | 0.0 | 1.6 | 0.00 | 0.00 | 0.00 | 99 | 4253.1 |
| 20260510121734 | 17 | 212 | 0.0 | 0.0 | 0.00 | 0.00 | 0.00 | 99 | 4252.9 |
| 20260510120729 | 17 | 205 | 0.0 | 0.0 | 0.00 | 0.00 | 0.00 | 99 | 4252.6 |
| 20260510115727 | 16 | 205 | 0.0 | 0.0 | 0.00 | 0.00 | 0.00 | 99 | 4252.7 |
| 20260510114726 | 15 | 212 | 0.0 | 0.0 | 0.00 | 0.00 | 0.00 | 99 | 4252.3 |
| 20260510113725 | 15 | 217 | 0.0 | 0.0 | 0.00 | 0.00 | 0.00 | 99 | 4252.3 |
| 20260510112724 | 15 | 216 | 1.6 | 1.6 | 0.00 | 0.00 | 0.00 | 99 | 4252.1 |
| 20260510111722 | 15 | 211 | 0.0 | 1.6 | 0.00 | 0.00 | 0.00 | 99 | 4251.7 |
| 20260510110719 | 15 | 214 | 1.6 | 1.6 | 0.00 | 0.00 | 0.00 | 99 | 4251.7 |
| 20260510105717 | 15 | 212 | 1.6 | 1.6 | 0.00 | 0.00 | 0.00 | 99 | 4251.5 |
| 20260510104714 | 15 | 214 | 1.6 | 1.6 | 0.00 | 0.00 | 0.00 | 99 | 4251.4 |
| 20260510103714 | 15 | 215 | 1.6 | 1.6 | 0.00 | 0.00 | 0.00 | 99 | 4251.2 |
| 20260510102711 | 15 | 211 | 1.6 | 1.6 | 0.00 | 0.00 | 0.00 | 99 | 4251.3 |
| 20260510101710 | 15 | 214 | 0.0 | 0.0 | 0.00 | 0.00 | 0.00 | 99 | 4251.0 |
| 20260510100710 | 15 | 220 | 1.6 | 1.6 | 0.00 | 0.00 | 0.00 | 99 | 4250.8 |
| 20260510095709 | 15 | 217 | 0.0 | 1.6 | 0.00 | 0.00 | 0.00 | 99 | 4250.7 |
| 20260510094709 | 15 | 220 | 1.6 | 1.6 | 0.00 | 0.00 | 0.00 | 99 | 4250.8 |
| 20260510093707 | 15 | 217 | 1.6 | 1.6 | 0.00 | 0.00 | 0.00 | 99 | 4250.5 |
| 20260510092706 | 16 | 208 | 0.0 | 0.0 | 0.00 | 0.00 | 0.00 | 99 | 4250.4 |
| 20260510091704 | 16 | 216 | 0.0 | 0.0 | 0.00 | 0.00 | 0.00 | 99 | 4250.3 |
| 20260510090703 | 15 | 216 | 0.0 | 0.0 | 0.00 | 0.00 | 0.00 | 99 | 4250.5 |
| 20260510085700 | 16 | 215 | 0.0 | 0.0 | 0.00 | 0.00 | 0.00 | 99 | 4250.4 |
| 20260510084658 | 16 | 216 | 0.0 | 0.0 | 0.00 | 0.00 | 0.00 | 99 | 4250.4 |
| 20260510083657 | 16 | 216 | 0.0 | 0.0 | 0.00 | 0.00 | 0.00 | 99 | 4250.5 |
| 20260510082656 | 16 | 216 | 0.0 | 1.6 | 0.00 | 0.00 | 0.00 | 99 | 4250.3 |
| 20260510081653 | 16 | 214 | 0.0 | 1.6 | 0.00 | 0.00 | 0.00 | 99 | 4250.3 |
| 20260510080648 | 16 | 213 | 1.6 | 1.6 | 0.00 | 0.00 | 0.00 | 99 | 4250.1 |
| 20260510075648 | 16 | 213 | 0.0 | 0.0 | 0.00 | 0.00 | 0.00 | 99 | 4250.0 |
| 20260510074648 | 16 | 214 | 0.0 | 0.0 | 0.00 | 0.00 | 0.00 | 99 | 4249.9 |
| 20260510073647 | 16 | 215 | 0.0 | 0.0 | 0.00 | 0.00 | 0.00 | 99 | 4249.9 |
| 20260510072645 | 16 | 214 | 0.0 | 0.0 | 0.00 | 0.00 | 0.00 | 99 | 4249.8 |
| 20260510071643 | 16 | 215 | 0.0 | 0.0 | 0.00 | 0.00 | 0.00 | 99 | 4249.8 |
| 20260510070639 | 16 | 217 | 0.0 | 0.0 | 0.00 | 0.00 | 0.00 | 99 | 4249.8 |
| 20260510065637 | 17 | 217 | 0.0 | 1.6 | 0.00 | 0.00 | 0.00 | 99 | 4250.1 |
| 20260510064636 | 17 | 216 | 0.0 | 0.0 | 0.00 | 0.00 | 0.00 | 99 | 4250.1 |
| 20260510063635 | 17 | 218 | 1.6 | 1.6 | 0.00 | 0.00 | 0.00 | 99 | 4250.1 |
| 20260510062634 | 17 | 218 | 0.0 | 0.0 | 0.00 | 0.00 | 0.00 | 99 | 4250.0 |
| 20260510061631 | 17 | 220 | 0.0 | 0.0 | 0.00 | 0.00 | 0.00 | 99 | 4249.9 |
| 20260510060631 | 17 | 221 | 0.0 | 0.0 | 0.00 | 0.00 | 0.00 | 99 | 4249.9 |
| 20260510055630 | 17 | 221 | 0.0 | 0.0 | 0.00 | 0.00 | 0.00 | 99 | 4249.9 |
| 20260510054629 | 17 | 221 | 0.0 | 0.0 | 0.00 | 0.00 | 0.00 | 99 | 4249.9 |
| 20260510053624 | 17 | 223 | 0.0 | 0.0 | 0.00 | 0.00 | 0.00 | 98 | 4249.9 |
| 20260510052623 | 18 | 221 | 0.0 | 0.0 | 0.00 | 0.00 | 0.00 | 98 | 4249.8 |
| 20260510051620 | 18 | 217 | 0.0 | 0.0 | 0.00 | 0.00 | 0.00 | 97 | 4249.8 |
| 20260510050615 | 18 | 224 | 1.6 | 1.6 | 0.00 | 0.00 | 0.00 | 97 | 4249.8 |
| 20260510045614 | 18 | 225 | 1.6 | 1.6 | 0.00 | 0.00 | 0.00 | 97 | 4249.9 |
| 20260510044613 | 18 | 242 | 4.8 | 4.8 | 0.00 | 0.00 | 0.00 | 97 | 4249.9 |
| 20260510043612 | 18 | 224 | 1.6 | 1.6 | 0.00 | 0.00 | 0.00 | 97 | 4249.9 |
| 20260510042607 | 18 | 223 | 0.0 | 0.0 | 0.00 | 0.00 | 0.00 | 96 | 4249.9 |
| 20260510041605 | 18 | 216 | 1.6 | 1.6 | 0.00 | 0.00 | 0.00 | 96 | 4250.1 |
| 20260510040605 | 18 | 211 | 1.6 | 1.6 | 0.00 | 0.00 | 0.00 | 95 | 4250.1 |
| 20260510035603 | 18 | 232 | 3.2 | 8.0 | 0.00 | 0.00 | 0.00 | 95 | 4250.2 |
| 20260510034601 | 19 | 232 | 1.6 | 3.2 | 0.00 | 0.00 | 0.00 | 94 | 4250.2 |
| 20260510033600 | 19 | 237 | 4.8 | 4.8 | 0.00 | 0.00 | 0.00 | 93 | 4250.2 |
| 20260510032559 | 19 | 228 | 3.2 | 4.8 | 0.00 | 0.00 | 0.00 | 93 | 4250.0 |
| 20260510031555 | 19 | 214 | 3.2 | 4.8 | 0.00 | 0.00 | 0.00 | 94 | 4250.2 |
| 20260510030553 | 18 | 222 | 0.0 | 0.0 | 0.00 | 0.00 | 0.00 | 94 | 4249.9 |
| 20260510025554 | 19 | 227 | 0.0 | 0.0 | 0.00 | 0.00 | 0.00 | 93 | 4250.1 |
| 20260510024554 | 19 | 226 | 0.0 | 0.0 | 0.00 | 0.00 | 0.00 | 92 | 4249.7 |
| 20260510023552 | 19 | 228 | 3.2 | 3.2 | 0.00 | 0.00 | 0.00 | 92 | 4249.7 |
| 20260510022549 | 19 | 228 | 1.6 | 3.2 | 0.00 | 0.00 | 0.00 | 92 | 4249.3 |
| 20260510021546 | 20 | 226 | 0.0 | 0.0 | 0.00 | 0.00 | 0.00 | 92 | 4249.2 |
| 20260510020543 | 20 | 225 | 0.0 | 1.6 | 0.00 | 0.00 | 0.00 | 91 | 4248.9 |
| 20260510015541 | 20 | 223 | 1.6 | 1.6 | 0.00 | 0.00 | 0.00 | 91 | 4248.9 |
| 20260510014540 | 20 | 226 | 0.0 | 0.0 | 0.00 | 0.00 | 0.00 | 91 | 4248.7 |
| 20260510013537 | 20 | 229 | 0.0 | 0.0 | 0.00 | 0.00 | 0.00 | 89 | 4248.4 |
| 20260510012533 | 20 | 229 | 0.0 | 0.0 | 0.00 | 0.00 | 0.00 | 88 | 4248.0 |
| 20260510011530 | 21 | 265 | 0.0 | 0.0 | 0.00 | 0.00 | 0.00 | 88 | 4247.9 |
| 20260510010528 | 21 | 303 | 0.0 | 0.0 | 0.00 | 0.00 | 0.00 | 86 | 4247.9 |
| 20260510005527 | 21 | 254 | 1.6 | 1.6 | 0.00 | 0.00 | 0.00 | 85 | 4247.6 |
| 20260510004522 | 22 | 254 | 1.6 | 1.6 | 0.00 | 0.00 | 0.00 | 84 | 4247.6 |
| 20260510003522 | 22 | 257 | 0.0 | 1.6 | 0.00 | 0.00 | 0.00 | 81 | 4247.3 |
| 20260510002519 | 23 | 260 | 1.6 | 1.6 | 0.00 | 0.00 | 0.00 | 79 | 4247.5 |
| 20260510001514 | 23 | 241 | 4.8 | 4.8 | 0.00 | 0.00 | 0.00 | 78 | 4247.4 |
| 20260510000512 | 23 | 242 | 1.6 | 1.6 | 0.00 | 0.00 | 0.00 | 78 | 4247.2 |
| 20260509235512 | 24 | 267 | 1.6 | 1.6 | 0.00 | 0.00 | 0.00 | 75 | 4247.1 |
| 20260509234511 | 25 | 290 | 0.0 | 1.6 | 0.00 | 0.00 | 0.00 | 74 | 4247.1 |
| 20260509233506 | 25 | 271 | 3.2 | 3.2 | 0.00 | 0.00 | 0.00 | 72 | 4247.0 |
| 20260509232506 | 25 | 252 | 1.6 | 1.6 | 0.00 | 0.00 | 0.00 | 68 | 4247.2 |
| 20260509231504 | 25 | 258 | 1.6 | 1.6 | 0.00 | 0.00 | 0.00 | 67 | 4247.1 |
| 20260509230505 | 25 | 311 | 1.6 | 1.6 | 0.00 | 0.00 | 0.00 | 66 | 4247.0 |
| 20260509225503 | 25 | 297 | 0.0 | 0.0 | 0.00 | 0.00 | 0.00 | 64 | 4247.0 |
| 20260509224500 | 25 | 297 | 0.0 | 0.0 | 0.00 | 0.00 | 0.00 | 65 | 4247.0 |
| 20260509223500 | 25 | 238 | 3.2 | 3.2 | 0.00 | 0.00 | 0.00 | 62 | 4247.0 |
| 20260509222458 | 26 | 234 | 1.6 | 3.2 | 0.00 | 0.00 | 0.00 | 63 | 4246.7 |
| 20260509221456 | 26 | 313 | 0.0 | 1.6 | 0.00 | 0.00 | 0.00 | 64 | 4246.8 |
| 20260509220455 | 26 | 228 | 6.4 | 8.0 | 0.00 | 0.00 | 0.00 | 60 | 4247.0 |
| 20260509215452 | 26 | 281 | 1.6 | 1.6 | 0.00 | 0.00 | 0.00 | 61 | 4246.7 |
| 20260509214447 | 26 | 259 | 1.6 | 1.6 | 0.00 | 0.00 | 0.00 | 62 | 4246.8 |
| 20260509213445 | 26 | 256 | 1.6 | 3.2 | 0.00 | 0.00 | 0.00 | 59 | 4246.7 |
| 20260509212445 | 26 | 17 | 1.6 | 1.6 | 0.00 | 0.00 | 0.00 | 62 | 4246.8 |
| 20260509211442 | 26 | 240 | 1.6 | 1.6 | 0.00 | 0.00 | 0.00 | 63 | 4246.7 |
| 20260509210442 | 26 | 336 | 1.6 | 1.6 | 0.00 | 0.00 | 0.00 | 62 | 4247.0 |
| 20260509205439 | 26 | 256 | 3.2 | 3.2 | 0.00 | 0.00 | 0.00 | 60 | 4246.8 |
| 20260509204437 | 26 | 299 | 4.8 | 8.0 | 0.00 | 0.00 | 0.00 | 60 | 4247.0 |
| 20260509203435 | 26 | 243 | 4.8 | 4.8 | 0.00 | 0.00 | 0.00 | 57 | 4247.0 |
| 20260509202435 | 26 | 297 | 1.6 | 1.6 | 0.00 | 0.00 | 0.00 | 59 | 4247.1 |
| 20260509201431 | 26 | 315 | 3.2 | 3.2 | 0.00 | 0.00 | 0.00 | 60 | 4247.1 |
| 20260509200428 | 26 | 290 | 1.6 | 1.6 | 0.00 | 0.00 | 0.00 | 60 | 4247.2 |
| 20260509195427 | 26 | 6 | 1.6 | 1.6 | 0.00 | 0.00 | 0.00 | 64 | 4247.2 |
| 20260509194422 | 25 | 359 | 1.6 | 1.6 | 0.00 | 0.00 | 0.00 | 67 | 4247.3 |
| 20260509193419 | 26 | 69 | 3.2 | 4.8 | 0.00 | 0.00 | 0.00 | 60 | 4247.3 |
| 20260509192417 | 25 | 4 | 6.4 | 8.0 | 0.00 | 0.00 | 0.00 | 62 | 4247.1 |
| 20260509191414 | 25 | 44 | 1.6 | 1.6 | 0.00 | 0.00 | 0.00 | 69 | 4247.2 |
| 20260509190413 | 25 | 341 | 1.6 | 1.6 | 0.00 | 0.00 | 0.00 | 68 | 4247.5 |
| 20260509185408 | 25 | 10 | 1.6 | 3.2 | 0.00 | 0.00 | 0.00 | 66 | 4247.7 |
| 20260509184407 | 25 | 336 | 4.8 | 4.8 | 0.00 | 0.00 | 0.00 | 65 | 4247.6 |
| 20260509183405 | 25 | 29 | 1.6 | 1.6 | 0.00 | 0.00 | 0.00 | 65 | 4247.8 |
| 20260509182404 | 25 | 356 | 4.8 | 4.8 | 0.00 | 0.00 | 0.00 | 65 | 4247.8 |
| 20260509181359 | 26 | 280 | 1.6 | 1.6 | 0.00 | 0.00 | 0.00 | 64 | 4247.8 |